Home > Weather > Ludhiana > Past weeks

Flag for India Weather for the Past 2 Weeks in Ludhiana, Punjab, India

Now
46 °F

Fog.


Feels Like: 46 °F
Forecast: 48 / 77 °F
Wind: No wind

Location: Amritsar Airport

Current Time: Feb 8, 2016 at 8:35:12 AM

Latest Report: Feb 8, 2016 at 5:30 AM


Visibility: 1 mi

Pressure: 30.04 "Hg

Humidity: 100%

Dew point: 46 °F

Location of LudhianaLocation

Historic Weather in Ludhiana — Graph

°F

Ludhiana Temperature Yesterday

Maximum temperature yesterday: 70 °F (at 2:30 PM)
Minimum temperature yesterday: 54 °F (at 9:00 PM)
Average temperature yesterday: 64 °F

High & Low Weather Summary for the Past Weeks

 TemperatureHumidityPressure
High72 °F (Feb 4, 1:30 PM)100% (Jan 24, 6:00 AM)30.18 "Hg (Jan 24, 6:00 AM)
Low41 °F (Jan 24, 7:30 AM)26% (Feb 1, 4:30 PM)29.89 "Hg (Feb 6, 3:30 AM)
Average54 °F89%30.03 "Hg
* Reported Jan 24 6:00 AM — Feb 8 5:30 AM, Ludhiana, Weather by CustomWeather, © 2016

Note: Actual official high and low records may vary slightly from our data, if they occured in-between our weather recording intervals... More about our weather records

Advertising

Ludhiana Weather History for the Previous 24 Hours

 ConditionsComfort  
Time TempWeatherWind HumidityBarometerVisibility
5:30 AM
Mon, Feb 8
46 °FFog.No wind100%30.04 "Hg1 mi
4:30 AM46 °FFog.No wind100%30.04 "Hg1 mi
9:30 PM
Sun, Feb 7
55 °FFog.No wind100%30.07 "Hg2 mi
9:00 PM54 °FFog.No wind100%30.07 "Hg2 mi
8:30 PM55 °FFog.No wind100%30.07 "Hg2 mi
8:00 PM59 °FFog.No wind94%30.07 "Hg2 mi
7:30 PM61 °FFog.No wind83%30.04 "Hg2 mi
7:00 PM61 °FFog.No wind77%30.04 "Hg2 mi
6:30 PM64 °FScattered clouds.1 mph64%30.04 "Hg3 mi
5:30 PM66 °FScattered clouds.1 mph64%30.01 "Hg3 mi
5:00 PM66 °FScattered clouds.5 mph64%30.01 "Hg3 mi
4:30 PM68 °FHaze.7 mph60%30.01 "Hg3 mi
4:00 PM68 °FHaze.7 mph56%30.01 "Hg3 mi
3:30 PM68 °FScattered clouds.9 mph56%30.04 "Hg3 mi
3:00 PM68 °FScattered clouds.10 mph64%30.04 "Hg3 mi
2:30 PM70 °FScattered clouds.8 mph64%30.04 "Hg3 mi
2:00 PM68 °FPartly sunny.8 mph69%30.04 "Hg3 mi
1:30 PM68 °FPartly sunny.8 mph69%30.07 "Hg3 mi
1:00 PM66 °FFog.8 mph73%30.07 "Hg3 mi
11:30 AM64 °FFog.9 mph78%30.09 "Hg2 mi
11:00 AM63 °FFog.7 mph88%30.09 "Hg2 mi
10:30 AM61 °FFog.7 mph100%30.09 "Hg2 mi
Weather by CustomWeather, © 2016

See weather overviewHow to use our weather pages